Vorticity
5 4 4 1 -1 2 5 2 4 2 3 4 4 2 4 -1 1 2 7 6 6 6 5 8 8 3 11 12 11 7 5 5 7 6 6 5 3 12 2 3 17 17 38 38
3 1 1 1 1 4 1 2 -0 2 3 2 4 3 4 2 2 2 6 5 6 5 7 7 9 8 10 11 7 6 5 4 4 9 5 5 9 4 -2 17 14 36 37 30
3 0 1 4 3 3 5 3 3 4 3 5 4 4 4 5 3 3 3 6 5 7 8 12 7 8 13 9 5 6 1 8 6 5 6 6 7 -3 18 15 33 35 32 21
1 1 2 -1 1 0 3 4 6 2 4 2 6 3 5 5 7 2 3 6 7 7 11 7 5 11 10 6 4 3 8 3 6 8 6 9 -1 18 12 35 30 33 22 19
6 4 2 2 2 3 2 0 4 4 4 9 4 7 6 5 8 -0 5 7 8 10 10 5 7 11 8 6 6 8 3 6 8 8 10 -1 15 14 34 27 28 30 19 16
7 5 4 5 4 3 4 3 6 4 6 7 6 4 7 10 4 2 7 9 8 9 8 4 8 8 7 7 7 3 7 9 9 7 -2 17 16 28 26 27 29 20 17 11
7 4 7 8 7 7 6 5 4 7 6 7 7 6 11 9 4 6 6 7 9 9 5 7 7 8 8 5 3 7 11 9 5 -3 15 15 26 26 25 23 25 14 14 11
8 6 10 8 11 10 9 10 9 8 9 7 9 10 9 7 5 5 8 10 9 6 7 7 7 8 4 3 6 12 11 4 -0 13 17 27 26 25 22 25 16 12 10 14
5 8 8 8 8 10 12 13 11 9 11 12 11 8 6 4 8 8 8 8 7 7 10 7 6 5 3 1 10 13 1 1 14 14 29 25 22 23 23 20 14 12 15 14
12 15 10 10 12 14 13 11 10 11 11 9 8 6 7 7 8 9 9 11 8 9 9 2 6 4 1 9 14 -2 7 13 14 33 22 20 24 22 18 17 16 16 10 9
12 15 10 13 12 10 12 12 10 9 8 8 5 6 9 7 10 11 13 8 6 5 5 1 6 3 10 13 -4 11 13 15 32 22 17 24 24 18 16 16 11 9 10 10
9 13 12 14 12 10 12 9 4 6 5 4 8 11 7 10 16 11 8 3 5 8 5 6 4 16 9 -0 11 11 15 28 22 15 19 26 21 16 10 9 12 13 12 14
10 10 10 10 11 7 -1 2 4 5 8 11 12 8 5 15 9 5 3 4 7 8 -1 4 19 5 -1 8 13 18 24 23 17 17 25 23 19 15 10 10 14 13 12 7
7 4 5 3 2 4 4 3 9 17 15 13 14 7 12 11 12 5 2 -4 8 8 4 17 3 0 10 12 17 25 14 21 15 23 24 19 17 14 13 15 16 12 4 9
5 4 4 6 6 4 9 18 12 5 6 12 24 10 8 10 10 9 -2 4 6 7 15 0 6 10 9 18 25 13 17 18 19 26 20 19 15 15 15 16 13 5 3 3
3 2 7 14 19 20 16 8 6 11 13 33 -11 5 12 18 -5 5 9 -1 12 14 -2 8 8 8 17 16 22 11 20 17 24 23 18 18 13 13 13 9 8 8 10 15
14 8 11 10 8 2 3 7 12 11 10 14 11 18 9 2 -1 -4 2 23 5 1 9 9 9 15 14 22 12 15 20 19 23 20 16 17 13 8 7 4 5 8 10 9
10 8 3 5 9 6 6 9 14 11 10 16 14 7 2 6 11 7 24 3 9 9 8 10 16 14 12 20 9 22 20 17 20 17 14 16 18 10 7 5 5 9 16 13
10 11 12 10 11 14 15 12 13 16 12 17 7 1 9 12 15 1 3 11 7 8 12 14 12 10 13 15 11 26 19 14 15 16 14 12 15 16 14 14 11 9 9 8
6 2 1 11 7 15 18 18 16 15 11 2 8 28 -11 -5 -2 11 11 7 15 10 14 11 8 12 15 13 13 24 16 13 9 12 11 10 9 8 8 9 9 9 11 13
13 19 15 16 7 15 12 14 16 -0 -11 -2 2 7 -8 16 8 4 14 15 10 12 9 9 12 16 18 12 14 24 15 14 7 7 11 7 6 6 5 6 6 6 6 7
10 8 7 14 17 14 10 13 19 19 12 3 12 14 8 6 12 14 11 12 11 9 11 11 17 16 13 10 15 24 16 14 12 6 8 10 11 11 11 11 10 10 9 8
9 10 11 8 8 10 6 2 11 20 12 6 7 8 11 11 7 11 14 13 9 15 9 15 14 13 12 10 15 25 17 15 16 10 8 9 11 11 10 12 10 11 14 15
11 8 6 6 7 8 6 12 10 15 15 11 9 11 14 14 14 15 7 13 12 12 21 21 15 14 14 11 15 25 16 15 20 13 8 7 8 10 11 16 18 16 14 16
14 9 10 18 15 16 15 2 4 10 9 11 13 14 15 22 12 9 17 10 6 11 17 18 14 11 13 14 17 19 15 17 20 11 6 8 7 6 10 10 15 15 15 13
25 17 13 8 10 1 -1 2 2 4 12 14 11 10 7 8 11 12 12 11 12 14 14 14 13 9 13 14 16 17 13 15 18 12 7 6 6 6 6 8 8 10 17 13
7 5 3 1 1 1 1 4 10 10 8 12 16 17 16 12 11 15 13 11 11 11 12 14 14 12 11 11 14 16 13 14 13 12 10 9 7 7 5 6 11 8 10 14
Height
5767 5768 5769 5770 5770 5770 5769 5768 5767 5766 5763 5758 5756 5753 5749 5745 5741 5736 5730 5724 5718 5711 5705 5698 5690 5683 5676 5667 5659 5650 5642 5634 5625 5615 5604 5592 5579 5565 5550 5533 5516 5498 5483 5469
5764 5764 5765 5765 5766 5765 5764 5762 5761 5759 5757 5752 5749 5745 5741 5737 5732 5726 5720 5714 5707 5700 5693 5686 5680 5673 5664 5655 5647 5639 5631 5622 5611 5600 5588 5575 5561 5546 5529 5511 5495 5481 5467 5457
5760 5760 5759 5761 5761 5759 5757 5756 5754 5752 5748 5745 5742 5738 5733 5728 5722 5716 5710 5703 5696 5688 5681 5675 5667 5659 5651 5644 5636 5627 5618 5606 5595 5583 5570 5555 5541 5526 5508 5491 5475 5463 5454 5447
5755 5755 5751 5757 5755 5752 5749 5747 5745 5743 5739 5735 5733 5728 5724 5717 5711 5705 5699 5691 5684 5676 5670 5663 5656 5648 5640 5632 5623 5613 5602 5591 5578 5566 5552 5536 5520 5503 5489 5474 5461 5450 5442 5437
5748 5749 5747 5747 5748 5745 5740 5739 5739 5733 5728 5725 5721 5718 5713 5705 5700 5694 5687 5680 5673 5667 5660 5652 5644 5635 5627 5617 5608 5597 5586 5574 5562 5548 5534 5518 5501 5486 5471 5458 5448 5440 5434 5429
5742 5739 5737 5738 5739 5736 5731 5728 5727 5722 5719 5714 5710 5707 5702 5694 5688 5682 5675 5669 5663 5656 5648 5639 5630 5621 5612 5603 5593 5582 5570 5557 5543 5530 5516 5500 5484 5470 5457 5446 5437 5431 5426 5422
5732 5730 5728 5729 5727 5725 5721 5721 5714 5711 5707 5703 5699 5694 5690 5682 5676 5670 5664 5657 5650 5641 5633 5625 5616 5608 5598 5588 5578 5567 5554 5541 5528 5514 5499 5483 5470 5457 5445 5436 5429 5424 5419 5415
5724 5722 5719 5720 5717 5714 5710 5706 5702 5699 5695 5690 5686 5681 5676 5670 5665 5658 5651 5643 5635 5627 5619 5611 5603 5594 5584 5574 5563 5551 5539 5526 5512 5496 5482 5469 5457 5445 5436 5428 5422 5417 5412 5408
5716 5715 5710 5706 5703 5700 5698 5694 5691 5687 5682 5677 5673 5667 5663 5658 5652 5644 5636 5629 5621 5614 5605 5596 5587 5579 5569 5558 5548 5536 5524 5510 5495 5482 5468 5455 5445 5435 5427 5421 5415 5410 5405 5401
5704 5704 5698 5694 5691 5690 5685 5681 5678 5674 5670 5666 5660 5654 5648 5643 5637 5630 5622 5615 5608 5601 5592 5583 5573 5564 5554 5545 5533 5521 5507 5493 5480 5468 5455 5444 5434 5426 5419 5413 5408 5403 5399 5395
5690 5689 5685 5684 5682 5677 5674 5671 5667 5663 5659 5654 5648 5642 5636 5630 5623 5616 5609 5603 5596 5587 5579 5570 5560 5550 5540 5530 5518 5505 5491 5478 5466 5454 5443 5433 5425 5418 5412 5407 5402 5398 5393 5389
5678 5678 5675 5674 5670 5666 5663 5660 5656 5651 5646 5641 5635 5629 5622 5617 5610 5603 5597 5590 5582 5573 5566 5557 5546 5536 5525 5514 5502 5490 5478 5465 5452 5442 5432 5424 5417 5411 5406 5401 5396 5392 5388 5384
5669 5667 5664 5661 5658 5654 5651 5647 5642 5638 5632 5627 5620 5616 5610 5604 5596 5590 5584 5576 5568 5560 5552 5543 5532 5521 5511 5499 5488 5475 5463 5452 5440 5430 5421 5414 5408 5403 5399 5394 5390 5387 5383 5379
5659 5655 5654 5651 5648 5644 5640 5635 5629 5624 5619 5614 5609 5604 5598 5590 5583 5576 5570 5562 5554 5546 5537 5527 5517 5508 5497 5486 5474 5461 5451 5439 5429 5419 5412 5406 5401 5396 5392 5388 5384 5381 5377 5374
5648 5645 5642 5639 5635 5631 5627 5622 5617 5613 5608 5602 5597 5589 5583 5577 5570 5564 5556 5549 5540 5531 5522 5513 5504 5494 5482 5472 5460 5449 5438 5428 5419 5411 5404 5399 5394 5390 5386 5382 5379 5376 5372 5368
5637 5634 5631 5627 5623 5618 5614 5610 5605 5600 5596 5591 5585 5578 5572 5566 5558 5551 5543 5534 5525 5517 5509 5500 5489 5479 5469 5458 5448 5437 5427 5418 5411 5403 5397 5393 5389 5385 5381 5378 5374 5370 5366 5362
5625 5621 5617 5614 5609 5605 5601 5597 5592 5587 5582 5576 5571 5565 5559 5552 5544 5537 5528 5520 5511 5504 5495 5486 5476 5466 5456 5446 5436 5426 5417 5409 5403 5396 5391 5386 5383 5380 5376 5372 5369 5365 5361 5356
5613 5609 5605 5600 5596 5591 5586 5582 5578 5572 5567 5561 5556 5551 5546 5538 5531 5522 5515 5505 5497 5489 5479 5472 5463 5452 5442 5433 5424 5416 5408 5401 5395 5389 5384 5380 5376 5373 5370 5366 5363 5359 5355 5350
5600 5595 5591 5587 5582 5577 5572 5567 5563 5557 5552 5547 5543 5537 5531 5522 5516 5509 5500 5491 5481 5476 5467 5456 5448 5439 5430 5421 5414 5406 5399 5393 5387 5382 5378 5374 5370 5366 5363 5360 5356 5352 5348 5344
5585 5582 5578 5573 5568 5562 5557 5552 5548 5544 5539 5533 5528 5521 5514 5507 5499 5492 5486 5478 5465 5461 5453 5444 5436 5427 5419 5411 5403 5395 5390 5385 5380 5375 5371 5367 5363 5360 5357 5353 5349 5345 5341 5337
5570 5565 5560 5556 5552 5548 5544 5540 5536 5530 5524 5518 5512 5506 5499 5491 5484 5478 5470 5462 5453 5444 5437 5430 5422 5415 5407 5400 5392 5385 5380 5376 5371 5367 5363 5359 5356 5352 5348 5344 5341 5337 5334 5330
5554 5550 5546 5542 5538 5534 5529 5525 5520 5514 5508 5502 5495 5489 5483 5476 5468 5461 5453 5444 5439 5431 5424 5416 5408 5401 5394 5387 5380 5374 5369 5365 5361 5358 5354 5350 5346 5342 5339 5335 5331 5327 5324 5320
5540 5536 5532 5527 5523 5518 5513 5509 5503 5497 5492 5486 5480 5473 5466 5459 5453 5444 5439 5433 5426 5418 5410 5403 5395 5388 5381 5375 5368 5362 5358 5353 5350 5347 5343 5339 5335 5332 5328 5324 5320 5316 5312 5309
5527 5523 5518 5513 5509 5504 5500 5494 5488 5482 5477 5471 5463 5455 5448 5442 5440 5428 5421 5415 5408 5402 5395 5387 5381 5375 5369 5362 5356 5350 5346 5342 5338 5335 5332 5329 5325 5321 5317 5313 5308 5304 5300 5297
5512 5508 5504 5499 5495 5490 5485 5480 5474 5467 5461 5456 5448 5440 5431 5422 5415 5416 5407 5400 5393 5385 5379 5373 5367 5361 5355 5349 5343 5338 5334 5330 5327 5324 5321 5318 5314 5311 5306 5302 5297 5293 5289 5286
5498 5493 5489 5485 5481 5476 5471 5465 5459 5452 5445 5439 5433 5424 5417 5408 5400 5393 5388 5382 5376 5369 5363 5358 5352 5347 5341 5336 5330 5326 5322 5318 5315 5312 5309 5306 5303 5299 5295 5291 5286 5282 5278 5275
5484 5480 5475 5470 5465 5459 5453 5446 5440 5433 5425 5417 5413 5405 5398 5391 5384 5376 5370 5364 5358 5352 5347 5341 5337 5332 5327 5322 5317 5313 5309 5306 5303 5300 5297 5294 5290 5286 5282 5278 5274 5270 5266 5262